CW9792 Weather Reports


Display with metric or nautical units.
time (UTC)temp
F
wind
direction
speed
MPH
gust
MPH
rain 1hr
in
rain 24hr
in
rain mn
in
humidity
%
barometer
mb
20200331000054 58 302 0.0 0.0 0.00 0.00 0.00 25 1019.3
20200330235514 58 302 0.0 0.0 0.00 0.00 0.00 26 1019.1
20200330235017 59 303 0.0 0.0 0.00 0.00 0.00 25 1019.1
20200330234551 59 306 0.0 0.0 0.00 0.00 0.00 26 1019.1
20200330234017 59 302 0.0 0.0 0.00 0.00 0.00 25 1019.1
20200330233514 59 302 0.0 0.0 0.00 0.00 0.00 25 1018.9
20200330233030 59 308 0.0 0.0 0.00 0.00 0.00 25 1019.0
20200330232514 60 304 0.0 0.0 0.00 0.00 0.00 23 1018.9
20200330232028 60 302 0.0 0.0 0.00 0.00 0.00 23 1018.9
20200330231639 60 297 0.0 0.0 0.00 0.00 0.00 23 1018.9
20200330231017 60 298 0.0 0.0 0.00 0.00 0.00 23 1018.8
20200330230519 60 307 0.0 0.0 0.00 0.00 0.00 24 1018.9
20200330230126 60 327 0.0 0.0 0.00 0.00 0.00 24 1018.9
20200330225518 60 333 0.0 0.0 0.00 0.00 0.00 25 1018.8
20200330225029 60 336 0.0 0.0 0.00 0.00 0.00 26 1018.9
20200330224530 61 335 0.0 0.0 0.00 0.00 0.00 24 1018.8
20200330224016 61 350 0.0 0.0 0.00 0.00 0.00 24 1018.8
20200330223516 61 360 0.0 0.0 0.00 0.00 0.00 22 1018.9
20200330223012 62 335 0.0 0.0 0.00 0.00 0.00 24 1018.9
20200330222511 62 355 0.0 0.0 0.00 0.00 0.00 24 1018.9
20200330222011 62 336 0.0 0.0 0.00 0.00 0.00 23 1018.9
20200330221522 62 338 0.0 0.0 0.00 0.00 0.00 25 1019.0
20200330221013 62 346 0.0 0.0 0.00 0.00 0.00 23 1018.8
20200330220516 62 327 0.0 0.0 0.00 0.00 0.00 23 1018.8
20200330220024 62 338 0.0 0.0 0.00 0.00 0.00 25 1018.7
20200330215511 62 321 0.0 0.0 0.00 0.00 0.00 25 1018.7
20200330215015 62 308 0.0 0.0 0.00 0.00 0.00 21 1018.8
20200330214514 62 293 0.0 0.0 0.00 0.00 0.00 20 1018.9
20200330214021 63 332 0.0 0.0 0.00 0.00 0.00 22 1018.8
20200330213511 63 327 0.0 0.0 0.00 0.00 0.00 23 1018.8
20200330213029 63 304 0.0 0.0 0.00 0.00 0.00 20 1018.9
20200330212510 63 290 0.0 0.0 0.00 0.00 0.00 20 1019.0
20200330212009 63 277 0.0 0.0 0.00 0.00 0.00 21 1019.0
20200330211513 63 284 0.0 0.0 0.00 0.00 0.00 19 1019.1
20200330211008 63 328 0.0 0.0 0.00 0.00 0.00 19 1019.2
20200330210508 63 282 0.0 0.0 0.00 0.00 0.00 23 1019.3
20200330210007 62 288 0.0 0.0 0.00 0.00 0.00 21 1019.3
20200330205507 62 338 0.0 0.0 0.00 0.00 0.00 25 1019.4
20200330205007 62 337 0.0 0.0 0.00 0.00 0.00 20 1019.3
20200330204508 63 336 0.0 0.0 0.00 0.00 0.00 20 1019.5
20200330204007 63 288 0.0 0.0 0.00 0.00 0.00 19 1019.5
20200330203506 63 296 0.0 0.0 0.00 0.00 0.00 20 1019.5
20200330203004 62 313 0.0 0.0 0.00 0.00 0.00 25 1019.6
20200330202510 62 322 0.0 0.0 0.00 0.00 0.00 25 1019.6
20200330202015 61 342 0.0 0.0 0.00 0.00 0.00 25 1019.6
20200330201506 62 335 0.0 0.0 0.00 0.00 0.00 21 1019.7
20200330201014 62 330 0.0 0.0 0.00 0.00 0.00 20 1019.8
20200330200514 62 335 0.0 0.0 0.00 0.00 0.00 21 1019.8
20200330200006 62 342 0.0 0.0 0.00 0.00 0.00 22 1019.9
20200330195514 62 348 0.0 0.0 0.00 0.00 0.00 21 1020.0
20200330195007 62 339 0.0 0.0 0.00 0.00 0.00 21 1020.0
20200330194503 62 317 0.0 0.0 0.00 0.00 0.00 22 1020.0
20200330194002 62 324 0.0 0.0 0.00 0.00 0.00 23 1020.0
20200330193502 62 327 0.0 0.0 0.00 0.00 0.00 23 1020.1
20200330193007 61 292 0.0 0.0 0.00 0.00 0.00 22 1020.3
20200330192502 62 302 0.0 0.0 0.00 0.00 0.00 23 1020.5
20200330192100 62 297 0.0 0.0 0.00 0.00 0.00 25 1020.6
20200330191503 62 351 0.0 0.0 0.00 0.00 0.00 27 1020.8
20200330190600 62 310 0.0 0.0 0.00 0.00 0.00 24 1021.1
20200330190237 62 346 0.0 0.0 0.00 0.00 0.00 26 1021.1
20200330185559 61 338 0.0 0.0 0.00 0.00 0.00 23 1021.2
20200330185108 61 321 0.0 0.0 0.00 0.00 0.00 25 1021.3
20200330184618 61 299 0.0 0.0 0.00 0.00 0.00 23 1021.3
20200330184058 61 321 0.0 0.0 0.00 0.00 0.00 24 1021.3
20200330183558 61 295 0.0 0.0 0.00 0.00 0.00 27 1021.5
20200330183216 61 341 0.0 0.0 0.00 0.00 0.00 22 1021.5
20200330182557 61 294 0.0 0.0 0.00 0.00 0.00 23 1021.6
20200330181734 60 304 0.0 0.0 0.00 0.00 0.00 28 1021.6
20200330181121 61 345 0.0 0.0 0.00 0.00 0.00 26 1021.5
20200330180555 60 300 0.0 0.0 0.00 0.00 0.00 29 1021.6
20200330180131 61 301 0.0 0.0 0.00 0.00 0.00 30 1021.7
20200330175610 60 300 0.0 0.0 0.00 0.00 0.00 27 1022.0
20200330175142 60 300 0.0 0.0 0.00 0.00 0.00 26 1022.1
20200330174708 60 309 0.0 0.0 0.00 0.00 0.00 27 1022.3
20200330174054 60 327 0.0 0.0 0.00 0.00 0.00 25 1022.3
20200330173555 60 355 0.0 0.0 0.00 0.00 0.00 28 1022.3
20200330173111 60 340 0.0 0.0 0.00 0.00 0.00 27 1022.6
20200330172553 60 315 0.0 0.0 0.00 0.00 0.00 29 1022.7
20200330172052 60 293 0.0 0.0 0.00 0.00 0.00 24 1022.6
20200330171614 59 326 0.0 0.0 0.00 0.00 0.00 26 1022.7
20200330171051 59 309 0.0 0.0 0.00 0.00 0.00 26 1022.8
20200330170554 58 306 0.0 0.0 0.00 0.00 0.00 25 1022.8
20200330170102 59 320 0.0 0.0 0.00 0.00 0.00 26 1022.7
20200330165557 59 319 0.0 0.0 0.00 0.00 0.00 28 1022.7
20200330165049 58 309 0.0 0.0 0.00 0.00 0.00 32 1022.7
20200330164559 58 316 0.0 0.0 0.00 0.00 0.00 29 1022.7
20200330164055 58 293 0.0 0.0 0.00 0.00 0.00 28 1022.6
20200330163607 58 283 0.0 0.0 0.00 0.00 0.00 27 1022.7
20200330163055 58 333 0.0 0.0 0.00 0.00 0.00 29 1022.7
20200330162620 58 333 0.0 0.0 0.00 0.00 0.00 30 1022.8
20200330162053 57 331 0.0 0.0 0.00 0.00 0.00 28 1022.9
20200330161609 58 335 0.0 0.0 0.00 0.00 0.00 29 1022.9
20200330161051 57 335 0.0 0.0 0.00 0.00 0.00 31 1022.9
20200330160552 56 318 0.0 0.0 0.00 0.00 0.00 31 1022.9
20200330160136 56 310 0.0 0.0 0.00 0.00 0.00 29 1023.0
20200330155544 56 327 0.0 0.0 0.00 0.00 0.00 30 1023.0
20200330154610 56 304 0.0 0.0 0.00 0.00 0.00 31 1023.1
20200330154046 56 303 0.0 0.0 0.00 0.00 0.00 31 1023.3
20200330153544 56 291 0.0 0.0 0.00 0.00 0.00 35 1023.3
20200330153155 56 284 0.0 0.0 0.00 0.00 0.00 34 1023.4
20200330152543 55 321 0.0 0.0 0.00 0.00 0.00 36 1023.4
20200330152043 55 304 0.0 0.0 0.00 0.00 0.00 35 1023.4
20200330151642 55 304 0.0 0.0 0.00 0.00 0.00 35 1023.4
20200330151046 55 333 0.0 0.0 0.00 0.00 0.00 34 1023.5
20200330150552 55 350 0.0 0.0 0.00 0.00 0.00 35 1023.5
20200330150202 55 328 0.0 0.0 0.00 0.00 0.00 35 1023.5
20200330145542 54 339 0.0 0.0 0.00 0.00 0.00 39 1023.3
20200330145046 54 325 0.0 0.0 0.00 0.00 0.00 35 1023.4
20200330144622 54 328 0.0 0.0 0.00 0.00 0.00 36 1023.4
20200330144040 54 300 0.0 0.0 0.00 0.00 0.00 34 1023.3
20200330143547 54 337 0.0 0.0 0.00 0.00 0.00 37 1023.3
20200330143109 54 295 0.0 0.0 0.00 0.00 0.00 39 1023.3
20200330142539 53 322 0.0 0.0 0.00 0.00 0.00 38 1023.3
20200330142051 53 341 0.0 0.0 0.00 0.00 0.00 37 1023.3
20200330141623 53 321 0.0 0.0 0.00 0.00 0.00 40 1023.1
20200330141037 53 326 0.0 0.0 0.00 0.00 0.00 39 1023.2
20200330140536 53 302 0.0 0.0 0.00 0.00 0.00 41 1023.1
20200330140055 52 333 0.0 0.0 0.00 0.00 0.00 42 1023.0
20200330135536 52 355 0.0 0.0 0.00 0.00 0.00 41 1023.0
20200330135052 52 5 0.0 0.0 0.00 0.00 0.00 43 1022.8
20200330134537 52 327 0.0 0.0 0.00 0.00 0.00 43 1023.0
20200330134038 52 304 0.0 0.0 0.00 0.00 0.00 43 1023.0
20200330133536 52 319 0.0 0.0 0.00 0.00 0.00 44 1023.1
20200330133206 51 292 0.0 0.0 0.00 0.00 0.00 44 1023.1
20200330132540 51 321 0.0 0.0 0.00 0.00 0.00 46 1023.2
20200330132054 51 296 0.0 0.0 0.00 0.00 0.00 44 1023.1
20200330131552 51 336 0.0 0.0 0.00 0.00 0.00 44 1022.9
20200330131041 51 331 0.0 0.0 0.00 0.00 0.00 44 1023.0
20200330130538 51 318 0.0 0.0 0.00 0.00 0.00 43 1023.1
20200330130151 51 333 0.0 0.0 0.00 0.00 0.00 44 1023.0
20200330125533 50 310 0.0 0.0 0.00 0.00 0.00 43 1022.9
20200330125032 50 320 0.0 0.0 0.00 0.00 0.00 43 1022.9
20200330124548 50 307 0.0 0.0 0.00 0.00 0.00 44 1022.8
20200330124034 50 318 0.0 0.0 0.00 0.00 0.00 45 1022.8
20200330123531 49 317 0.0 0.0 0.00 0.00 0.00 46 1022.8
20200330123057 49 325 0.0 0.0 0.00 0.00 0.00 45 1022.8
20200330122531 49 326 0.0 0.0 0.00 0.00 0.00 44 1022.8
20200330122031 48 290 0.0 0.0 0.00 0.00 0.00 47 1022.7
20200330121540 48 250 0.0 0.0 0.00 0.00 0.00 47 1022.6
20200330121028 48 250 0.0 0.0 0.00 0.00 0.00 47 1022.5
20200330120537 48 273 0.0 0.0 0.00 0.00 0.00 46 1022.4
20200330120046 48 283 0.0 0.0 0.00 0.00 0.00 47 1022.4
20200330115528 48 284 0.0 0.0 0.00 0.00 0.00 46 1022.3
20200330115034 48 284 0.0 0.0 0.00 0.00 0.00 46 1022.4
20200330114606 49 274 0.0 0.0 0.00 0.00 0.00 45 1022.3
20200330114025 49 300 0.0 0.0 0.00 0.00 0.00 45 1022.1
20200330113524 49 290 0.0 0.0 0.00 0.00 0.00 45 1022.0
20200330113146 49 290 0.0 0.0 0.00 0.00 0.00 45 1021.9
20200330112529 49 294 0.0 0.0 0.00 0.00 0.00 45 1022.0
20200330112022 49 304 0.0 0.0 0.00 0.00 0.00 44 1021.8
20200330111522 49 298 0.0 0.0 0.00 0.00 0.00 44 1021.8
20200330111026 49 303 0.0 0.0 0.00 0.00 0.00 44 1021.8
20200330110520 50 312 0.0 0.0 0.00 0.00 0.00 44 1021.7
20200330110046 50 299 0.0 0.0 0.00 0.00 0.00 44 1021.6
20200330105519 50 321 0.0 0.0 0.00 0.00 0.00 45 1021.5
20200330105017 50 321 0.0 0.0 0.00 0.00 0.00 45 1021.5
20200330104529 50 309 0.0 0.0 0.00 0.00 0.00 44 1021.4
20200330104017 50 309 0.0 0.0 0.00 0.00 0.00 45 1021.4
20200330103516 50 327 0.0 0.0 0.00 0.00 0.00 45 1021.4
20200330103018 50 284 0.0 0.0 0.00 0.00 0.00 44 1021.3
20200330102531 50 309 0.0 0.0 0.00 0.00 0.00 45 1021.3
20200330102013 50 311 0.0 0.0 0.00 0.00 0.00 45 1021.2
20200330101518 51 317 0.0 0.0 0.00 0.00 0.00 45 1021.2
20200330101012 51 323 0.0 0.0 0.00 0.00 0.00 44 1021.1
20200330100515 51 292 0.0 0.0 0.00 0.00 0.00 44 1021.0
20200330100015 51 296 0.0 0.0 0.00 0.00 0.00 43 1020.9
20200330095510 52 297 0.0 0.0 0.00 0.00 0.00 43 1020.8
20200330095010 52 288 0.0 0.0 0.00 0.00 0.00 43 1020.8
20200330094518 52 294 0.0 0.0 0.00 0.00 0.00 44 1020.6
20200330094026 52 299 0.0 0.0 0.00 0.00 0.00 45 1020.6
20200330093520 51 291 0.0 0.0 0.00 0.00 0.00 46 1020.6
20200330093017 51 290 0.0 0.0 0.00 0.00 0.00 47 1020.4
20200330092507 51 294 0.0 0.0 0.00 0.00 0.00 47 1020.4
20200330092014 51 294 0.0 0.0 0.00 0.00 0.00 46 1020.3
20200330091506 51 284 0.0 0.0 0.00 0.00 0.00 47 1020.1
20200330091004 51 266 0.0 0.0 0.00 0.00 0.00 48 1020.1
20200330090510 51 268 0.0 0.0 0.00 0.00 0.00 48 1020.0
20200330090009 51 269 0.0 0.0 0.00 0.00 0.00 48 1019.9
20200330085506 52 269 0.0 0.0 0.00 0.00 0.00 48 1019.8
20200330085003 52 274 0.0 0.0 0.00 0.00 0.00 47 1019.8
20200330084510 52 275 0.0 0.0 0.00 0.00 0.00 47 1019.7
20200330084005 52 272 0.0 0.0 0.00 0.00 0.00 47 1019.7
20200330083501 52 266 0.0 0.0 0.00 0.00 0.00 47 1019.7
20200330083001 52 274 0.0 0.0 0.00 0.00 0.00 47 1019.6
20200330082106 53 269 0.0 0.0 0.00 0.00 0.00 47 1019.5
20200330081904 53 244 0.0 0.0 0.00 0.00 0.00 46 1019.5
20200330081058 53 244 0.0 0.0 0.00 0.00 0.00 46 1019.4
20200330080558 53 236 0.0 0.0 0.00 0.00 0.00 46 1019.4
20200330080213 53 232 0.0 0.0 0.00 0.00 0.00 46 1019.3
20200330075557 53 229 0.0 0.0 0.00 0.00 0.00 46 1019.3
20200330075057 53 246 0.0 0.0 0.00 0.00 0.00 46 1019.3
20200330074658 53 236 0.0 0.0 0.00 0.00 0.00 46 1019.3
20200330074056 53 229 0.0 0.0 0.00 0.00 0.00 47 1019.2
20200330073601 53 229 0.0 0.0 0.00 0.00 0.00 47 1019.2
20200330073315 53 229 0.0 0.0 0.00 0.00 0.00 46 1019.1
20200330072554 53 225 0.0 0.0 0.00 0.00 0.00 46 1019.0
20200330072057 53 234 0.0 0.0 0.00 0.00 0.00 46 1019.0
20200330071651 52 228 0.0 0.0 0.00 0.00 0.00 47 1018.9
20200330071056 51 233 0.0 0.0 0.00 0.00 0.00 49 1019.0
20200330070556 51 222 0.0 0.0 0.00 0.00 0.00 48 1019.0
20200330070242 52 208 0.0 0.0 0.00 0.00 0.00 47 1019.0
20200330065601 53 213 0.0 0.0 0.00 0.00 0.00 46 1019.0
20200330065048 53 215 0.0 0.0 0.00 0.00 0.00 45 1018.8
20200330064648 54 232 0.0 0.0 0.00 0.00 0.00 44 1018.8
20200330064047 54 232 0.0 0.0 0.00 0.00 0.00 44 1018.7
20200330063553 54 233 0.0 0.0 0.00 0.00 0.00 43 1018.7
20200330063124 55 234 0.0 0.0 0.00 0.00 0.00 43 1018.7
20200330062549 55 235 0.0 0.0 0.00 0.00 0.00 43 1018.7
20200330062049 55 232 0.0 0.0 0.00 0.00 0.00 43 1018.7
20200330061621 55 227 0.0 0.0 0.00 0.00 0.00 43 1018.5
20200330061044 55 227 0.0 0.0 0.00 0.00 0.00 43 1018.6
20200330060603 55 229 0.0 0.0 0.00 0.00 0.00 43 1018.7
20200330060101 55 223 0.0 0.0 0.00 0.00 0.00 43 1018.7
20200330055550 55 232 0.0 0.0 0.00 0.00 0.00 43 1018.6
20200330055049 55 231 0.0 0.0 0.00 0.00 0.00 43 1018.7
20200330054808 55 226 0.0 0.0 0.00 0.00 0.00 43 1018.7
20200330054042 55 223 0.0 0.0 0.00 0.00 0.00 43 1018.7
20200330053548 55 233 0.0 0.0 0.00 0.00 0.00 43 1018.7
20200330053204 55 221 0.0 0.0 0.00 0.00 0.00 43 1018.7
20200330052541 55 211 0.0 0.0 0.00 0.00 0.00 43 1018.7
20200330052048 55 223 0.0 0.0 0.00 0.00 0.00 43 1018.7
20200330051754 56 223 0.0 0.0 0.00 0.00 0.00 42 1018.6
20200330051040 56 223 0.0 0.0 0.00 0.00 0.00 42 1018.6
20200330050549 56 232 0.0 0.0 0.00 0.00 0.00 42 1018.7
20200330050249 56 248 0.0 0.0 0.00 0.00 0.00 42 1018.6
20200330045542 56 223 0.0 0.0 0.00 0.04 0.00 42 1018.7
20200330045039 56 225 0.0 0.0 0.00 0.04 0.00 42 1018.7
20200330044714 56 227 0.0 0.0 0.00 0.04 0.00 42 1018.8
20200330044037 56 225 0.0 0.0 0.00 0.04 0.00 42 1018.8
20200330043536 56 228 0.0 0.0 0.00 0.04 0.00 42 1018.8
20200330043047 56 229 0.0 0.0 0.00 0.04 0.00 42 1018.8
20200330042537 57 220 0.0 0.0 0.00 0.04 0.00 42 1018.7
20200330042035 57 238 0.0 0.0 0.00 0.04 0.00 41 1018.7
20200330041553 57 224 0.0 0.0 0.00 0.04 0.00 42 1018.6
20200330041033 57 224 0.0 0.0 0.00 0.04 0.00 41 1018.7
20200330040532 57 224 0.0 0.0 0.00 0.04 0.00 41 1018.8
20200330040055 57 227 0.0 0.0 0.00 0.04 0.00 41 1018.7
20200330035530 57 220 0.0 0.0 0.00 0.04 0.04 41 1018.8
20200330035031 57 221 0.0 0.0 0.00 0.04 0.04 40 1018.8
20200330034532 57 242 0.0 0.0 0.00 0.04 0.04 40 1018.8
20200330034030 57 223 0.0 0.0 0.00 0.04 0.04 41 1018.7
20200330033531 58 227 0.0 0.0 0.00 0.04 0.04 40 1018.9
20200330033123 58 222 0.0 0.0 0.00 0.04 0.04 39 1018.8
20200330032541 58 239 0.0 0.0 0.00 0.04 0.04 40 1018.7
20200330032027 58 240 0.0 0.0 0.00 0.04 0.04 39 1018.7
20200330031712 58 233 0.0 0.0 0.00 0.04 0.04 39 1018.6
20200330031029 58 246 0.0 0.0 0.00 0.04 0.04 38 1018.6
20200330030525 58 269 0.0 0.0 0.00 0.04 0.04 39 1018.7
20200330030059 59 257 0.0 0.0 0.00 0.04 0.04 39 1018.7
20200330025524 59 252 0.0 0.0 0.00 0.04 0.04 39 1018.6
20200330025027 59 258 0.0 0.0 0.00 0.04 0.04 39 1018.6
20200330024553 59 246 0.0 0.0 0.00 0.04 0.04 38 1018.5
20200330024023 59 238 0.0 0.0 0.00 0.04 0.04 39 1018.5
20200330023523 59 247 0.0 0.0 0.00 0.04 0.04 38 1018.5
20200330023041 59 243 0.0 0.0 0.00 0.04 0.04 39 1018.4
20200330022542 59 238 0.0 0.0 0.00 0.04 0.04 39 1018.5
20200330022022 59 263 0.0 0.0 0.00 0.04 0.04 38 1018.5
20200330021554 59 246 0.0 0.0 0.00 0.04 0.04 39 1018.4
20200330021026 59 269 0.0 0.0 0.00 0.04 0.04 38 1018.4
20200330020051 59 250 0.0 0.0 0.00 0.04 0.04 38 1018.2
20200330015517 59 236 0.0 0.0 0.00 0.04 0.04 39 1018.1
20200330015021 59 255 0.0 0.0 0.00 0.04 0.04 38 1018.2
20200330014524 59 245 0.0 0.0 0.00 0.04 0.04 39 1018.1
20200330014016 60 247 0.0 0.0 0.00 0.04 0.04 38 1018.1
20200330013515 60 227 0.0 0.0 0.00 0.04 0.04 39 1018.1
20200330013040 60 241 0.0 0.0 0.00 0.04 0.04 38 1017.9
20200330012514 60 257 0.0 0.0 0.00 0.04 0.04 39 1017.9
20200330012014 60 238 0.0 0.0 0.00 0.04 0.04 39 1017.8
20200330011532 60 252 0.0 0.0 0.00 0.04 0.04 39 1017.9
20200330011012 60 236 0.0 0.0 0.00 0.04 0.04 38 1017.7
20200330010512 60 227 0.0 0.0 0.00 0.04 0.04 39 1017.6
20200330010042 60 240 0.0 0.0 0.00 0.04 0.04 39 1017.6
20200330005511 60 251 0.0 0.0 0.00 0.04 0.04 38 1017.5
20200330005009 60 256 0.0 0.0 0.00 0.04 0.04 38 1017.3
20200330004519 60 254 0.0 0.0 0.00 0.04 0.04 38 1017.3
20200330004009 61 252 0.0 0.0 0.00 0.04 0.04 37 1017.3
20200330003514 61 248 0.0 0.0 0.00 0.04 0.04 36 1017.2
20200330003055 61 248 0.0 0.0 0.00 0.04 0.04 36 1017.2
20200330002514 61 284 0.0 0.0 0.00 0.04 0.04 36 1017.0
20200330002006 61 272 0.0 0.0 0.00 0.04 0.04 36 1017.0
20200330001533 61 284 0.0 0.0 0.00 0.04 0.04 35 1016.8
20200330001016 61 266 0.0 0.0 0.00 0.04 0.04 35 1016.8
20200330000503 62 263 0.0 0.0 0.00 0.04 0.04 34 1016.6